Regional Weather Roundup
Issued by NWS Charleston, WV

Current Version | Previous Version | Text Only | Print | Product List | Glossary On
Versions: 1 2 3 4 5 6 7 8 9 10 11 12 13 14 15 16 17 18 19 20 21 22 23 24 25 26 27 28 29 30 31 32 33 34 35 36 37 38 39 40 41 42 43 44 45 46 47 48 49 50
000
ASUS41 KRLX 030110
RWRRLX
West Virginia Regional Weather Roundup
National Weather Service Charleston WV
900 PM EDT TUE JUN 02 2015

Note: "fair" indicates few or no clouds below 12,000 feet with no
significant weather and/or obstructions to visibility.

WVZ003-030200-
Northern Panhandle of West Virginia

CITY           SKY/WX    TMP DP  RH WIND       PRES   REMARKS
WHEELING       CLOUDY    60  53  77 NE7       30.10F
$$

WVZ009-030200-
Northwest West Virginia

CITY           SKY/WX    TMP DP  RH WIND       PRES   REMARKS
PARKERSBURG    CLOUDY    61  55  81 NE5       30.11S
$$

WVZ006-030200-
Western West Virginia

CITY           SKY/WX    TMP DP  RH WIND       PRES   REMARKS
HUNTINGTON     CLOUDY    58  55  90 NE5       30.07S
$$

WVZ015-030200-
West Central West Virginia

CITY           SKY/WX    TMP DP  RH WIND       PRES   REMARKS
CHARLESTON     CLOUDY    59  56  89 NE5       30.07S
$$

WVZ022-031-030200-
North Central West Virginia

CITY           SKY/WX    TMP DP  RH WIND       PRES   REMARKS
CLARKSBURG     CLOUDY    59  57  93 NE7       30.09R FOG
MORGANTOWN     CLOUDY    61  55  81 N5        30.10S
$$

WVZ025-035-042-045-030200-
Southern West Virginia

CITY           SKY/WX    TMP DP  RH WIND       PRES   REMARKS
BECKLEY        CLOUDY    58  55  90 NE5       30.08S
LOGAN          CLOUDY    57  57 100 N3        30.04R FOG
BLUEFIELD      CLOUDY    64  58  80 CALM      30.08R
LEWISBURG      LGT RAIN  65  62  90 CALM      30.08R
$$

WVZ047-030200-
Northern Mountains of West Virginia

CITY           SKY/WX    TMP DP  RH WIND       PRES   REMARKS
ELKINS         CLOUDY    59  57  93 CALM      30.09R
$$

WVZ052-030200-
Eastern Panhandle of West Virginia

CITY           SKY/WX    TMP DP  RH WIND       PRES   REMARKS
MARTINSBURG    CLOUDY    60  55  83 NE6       30.13S
PETERSBURG     CLOUDY    62  56  82 CALM      30.13R
$$


USA.gov is the U.S. government's official web portal to all federal, state and local government web resources and services.